METEOR 2-10

Satellite information

Favourite Embed

Satellite Type and Status

PAYLOADIN ORBIT

Key statistics

Satellite METEOR 2-10 at a glance.

Uptime

15331

Days in orbit

Revolutions

≈ 14.3

Per day

Orbit

LEO

Low Earth Orbit

Inclination

81.2

Latest

Satellite identification and parameters

Extended collection of information and parameters for METEOR 2-10.

Object identification

Identified? True

Debris? False

Object name: METEOR 2-10

International designator: 1983-109A

Object number (NORAD): 14452

Object ID (CCSDS): 14452

Country: COMMONWEALTH OF INDEPENDENT STATES (CIS)

Current information (Y/N): Y

RCS size: LARGE

Orbital parameters

Period: 100.897 minutes

Inclination: 81.1601 deg

SMA: 7179.26 km

Apoapsis: 865.435 km

Periapsis: 736.816 km

RAAN: 243.2081 deg

Eccentricy: 0.00895769

Argument of periapsis: 189.4019 deg

Mean anomaly: 170.549 deg

Mean motion: 14.2719462 rev/day

Mean motion (dot): 0.00000197 rev/day2

B* drag term: 0.000072074812 1/REarth

Two-line elements (TLE)

Creation date: Oct. 16, 2025, 6:34 p.m.

Reference frame: TEME

Reference center: EARTH

Epoch: Oct. 16, 2025, 2:35 p.m. UTC

TLE line 0: 0 METEOR 2-10

TLE line 1: 1 14452U 83109A 25289.60810789 .00000197 00000-0 72075-4 0 9994

TLE line 2: 2 14452 81.1601 243.2081 0089577 189.4019 170.5490 14.27194620182679

Live tracking on map

Real-time ground track for satellite METEOR 2-10.

In-orbit conjunctions

A list of the most updated potential collisions computed for object METEOR 2-10.

Target Orbit TCA Probability of collision Miss distance Type
NOAA 16 DEB SSO 2025-10-08 14:20:26 0.0003023223 174.0 (m) DEBRIS
FENGYUN 1C DEB SSO 2025-10-03 01:26:27 0.0002343091 206.0 (m) DEBRIS
FENGYUN 1C DEB SSO 2025-06-20 13:29:57 0.0001019355 1000.0 (m) DEBRIS
NOAA 16 DEB SSO 2025-04-30 16:56:27 0.0001304968 326.0 (m) DEBRIS
DELTA 1 DEB SSO 2024-12-07 02:12:16 0.0002346025 245.0 (m) DEBRIS

Associated space launch

Second generation soviet meteorological satellite

METEOR 2-10 was lifted into orbit during the mission ‘Vostok 8A92M | Meteor-2 10’, on board a Vostok 8A92M space rocket.

The launch took place on Oct. 28, 1983, 9 a.m. from 16/2.

For more information about the launch, click the button.

Launch to space Vostok 8A92M | Meteor-2 10
Vostok 8A92M | Meteor-2 10

Agency: N/A

Status: Launch Successful

Launch date: Oct. 28, 1983, 9 a.m. UTC

Rocket: Vostok 8A92M

Launch pad: 16/2

Location: Plesetsk Cosmodrome, Russian Federation

...

Latest news about this satellite

There are no fresh news available about this satellite. Check back as we update our databases every day.


Newsletter sign-up

Weekly statistics, charts and insights to help you stay on top of the space industry.